Terminal Aerodrome Forecast
Issued by NWS Memphis, TN

Home | Current Version | Previous Version | Text Only | Print | Product List | Glossary On
Versions: 1 2 3 4 5 6 7 8 9 10 11 12 13 14
000
FTUS44 KMEG 301100
TAFMKL
TAF
KMKL 301124Z 3012/3112 19003KT P6SM VCSH SCT100
     FM301700 20008KT P6SM -SHRA VCTS SCT045 BKN060CB
     FM310100 17006KT 5SM -SHRA BR VCTS SCT015 BKN025CB=

USA.gov is the U.S. government's official web portal to all federal, state and local government web resources and services.